242P/Spahr (2012)

Japanese version
Home page
Updated on May 11, 2014

---------------------------------------------------------------------

* Profile

Designation 242P/2010 P3
Recovery Date August 14, 2010
Magnitude 20.0 mag
Recoverer G. Hug (Scranton, KS, U.S.A.)

* Pictures

* Orbital Elements

Epoch 2012 Apr. 23.0 TT = JDT 2456040.5
T 2012 Apr. 3.58454 TT                                  MPC
q   3.9799233            (2000.0)            P               Q
n   0.07601931     Peri.  247.68548     +0.36912506     -0.92935148
a   5.5189117      Node   180.77321     +0.91824942     +0.36349007
e   0.2788572      Incl.   32.48282     -0.14340397     -0.06465911
P  13.0
From 416 observations 1997 Oct. 29-2012 Dec. 17, mean residual 0".6.

* Magnitudes Graph

        m1 = 1.0 + 5 log d + 22.5 log r(t - 120)

---------------------------------------------------------------------

The orbital elements are published on M.P.E.C. 2012-Y30.
The magnitudes graphs are made with Comet for Windows.

---------------------------------------------------------------------

Copyright(C) Seiichi Yoshida (comet@aerith.net). All rights reserved.